Location: Newark
(51.2625°N, 13.3939°E)
Time: 08:03:09
(UTC+00:00)

deb Explorer IX - Pass Details

Date: 26 November 2019
Orbit: 546 x 1104 km, 38.8° (Epoch: 12 December)

Event Time Altitude Azimuth Distance (km) Brightness Sun altitude
Rises 21:29:29 0° 227° (SW) 3,911 - -55.6°
Reaches altitude 10° 21:32:50 10° 214° (SW) 2,942 - -55.9°
Maximum altitude 21:38:20 24° 165° (SSE) 2,044 - -56.4°
Drops below altitude 10° 21:43:34 10° 115° (ESE) 2,775 - -56.8°
Sets 21:46:37 0° 102° (ESE) 3,642 - -57.0°
